DELTA 1 DEB, 13539

Orbit data source: Space-Track

DELTA 1 DEB, 13539 is space debris in LEO originally from a launch on Thu, 29 Jul 1976 UTC launched from the Air Force Western Test Range (AFWTR). Debris objects in space refer to the collection of defunct objects orbiting the Earth. Examples of debris include non-operational satellites, rocket bodies, and fragments generated from explosions, collisions, or faulty payload assembly.

Loading next visibility...
Identifier
13539, 1976-077EM
Orbit
LEO
Country
Flag of USUS
Related business
Manufacturer
Unknown
Mission
Spacecraft
Bus & Motor
Unknown
Mass
Unknown
Launch date (UTC)
1976-07-29 (50 years ago)
Launch vehicle
Unknown
Launch site
Air Force Western Test Range (AFWTR)
Object type
Payload
Rocket body
Debris
Shape & HBR
Unknown shape, 1.1 m
Radar Cross Section
Small (<0.1 m²)

Expand to show TLE details & history
Last TLE update: 1 day ago

TLE from 1 day ago
0 DELTA 1 DEB
1 13539U 76077EM  26131.15236196  .00000017  00000-0  75807-3 0  9992
2 13539 101.8769 208.8810 0413656 122.9360 270.7379 11.65466033949440
Epoch: 2026-05-11T03:39Z
TLE epoch observation values (Epoch: 2026-05-11T03:39:24.073Z)
Latitude
28.30094°
Longitude
-81.38626°
Altitude
1,852.066 km
Speed
6.959 km/s
True Right ascension
13h 29m 38s
True Declination
28° 10' 36"
Sunlit
Object was in daylight at epoch
Visualization orbit readout
Latitude
Unknown
Longitude
Unknown
Altitude
Unknown
Speed
Unknown
Apparent Right ascension
Unknown
Apparent Declination
Unknown
Sunlit
N/A
Visualization observer readout
Local Sidereal Time
18:29:21
Azimuth
Unknown
Elevation
Unknown
Doppler factor
Unknown
Orbital elements
Apogee altitude
2,176.764 km
Perigee altitude
1,497.121 km
Semi-major axis
8,215.079 km
Eccentricity
0.04137
Inclination
101.8769°
RAAN
208.881°
Arg. of periapsis
122.936°
True anomaly
266.00039°
Mean anomaly
270.7379°
Eccentric anomaly
268.36879°
Mean motion
2.91491 °/min
Orbital period
123.5 mins
BSTAR
0.00075807
Loading maneuver chart data...
Computing Atmospheric mass density...
Loading historical data...
Loading historical data...
Loading historical data...
Loading historical data...
Loading historical data...
Loading historical data...
Loading historical data...

Documentation

Showing up to 5 results
|